Starlink 30113

operational
NORAD ID: 56291 Int'l Des: 2023-056 Owner: SPXS Country: US Constellation: starlink
LEOCIRCULAR

Starlink 30113について

説明を読み込み中...

リアルタイム位置

3D地球を読み込み中...

次回通過

高度履歴

Altitude vs Time

uPlot chart will show altitude changes over time

軌道要素

1 56291U 23056F 26035.03348505 -.00000763 00000-0 -41378-4 0 9998
2 56291 43.0066 32.9432 0001530 273.8867 86.1800 15.02534840154967
Epoch: Feb 4, 2026 • Age: 14 hours

現在のステータス

高度 570.5 km
速度 7.58 km/s
衛星直下点 -40.85°S, 78.06°W
打ち上げ日 Apr 19, 2023
運用期間 2.7 years
タイプ internet

技術仕様

分類 Payload
質量 730.00 kg
乾燥質量 700.00 kg
総質量 730.00 kg
長さ 0.30 m
直径 4.10 m
スパン 29.00 m
形状 Box + pan
製造者 SPXS
バスタイプ Starlink V2M
フェーズステータス In Orbit
所有者/国 SPXS/US

大規模コンステレーション

Loading constellations...